Moses Lake, WA
on Saturday, December 22, 2012

Saturday
Previous Day Next Day
Daily Summary
 ActualAverageRecord
Temperature
Mean Temperature °F 28°F  
Max Temperature 39°F 34°F 44°F (2004)
Min Temperature 30°F 22°F -5°F (1983)
Degree Days
Heating Degree Days 30 37  
Month to date heating degree days 623 788  
Since 1 July heating degree days 1891 2249  
Cooling Degree Days 0 0  
Month to date cooling degree days 0 0  
Year to date cooling degree days 719 615  
Moisture
Dew Point 32°F   
Average Humidity 89    
Maximum Humidity 96    
Minimum Humidity 82    
Precipitation
Precipitation 0.02 in 0.06 in 0.31 in (1980)
Month to date precipitation 1.36 0.94  
Year to date precipitation 9.10 8.61  
Wind
Wind Speed 5 mph   
Max Wind Speed 17 mph   
Max Gust Speed 21 mph   
Visibility 8 miles   
Events Rain   

Key: T is trace of precipitation, MM is missing value
Source: NWS Daily Summary
Time(PST)TemperatureDew PointHumidity Pressure Visibility Wind DirectionWind SpeedGust SpeedPrecipitationEvents Conditions
12:29 AM 33.8°F 33.8°F 100% 29.74 in 2.0 miles SSW 3.5 mph - N/A   Overcast
12:37 AM 33.8°F 33.8°F 100% 29.74 in 6.0 miles Calm Calm - N/A   Overcast
12:52 AM 33.8°F 30.2°F 87% 29.74 in 4.0 miles WNW 3.5 mph - N/A   Mostly Cloudy
1:02 AM 33.8°F 30.2°F 87% 29.74 in 3.0 miles NW 3.5 mph - N/A   Mostly Cloudy
1:10 AM 32.0°F 30.2°F 93% 29.74 in 2.5 miles NW 6.9 mph - N/A   Mostly Cloudy
1:19 AM 33.8°F 30.2°F 87% 29.74 in 1.8 miles NNW 5.8 mph - N/A   Mostly Cloudy
1:22 AM 33.8°F 30.2°F 87% 29.74 in 3.0 miles NNW 5.8 mph - N/A   Mostly Cloudy
1:32 AM 32.0°F 30.2°F 93% 29.73 in 7.0 miles North 5.8 mph - N/A   Scattered Clouds
1:52 AM 32.0°F 30.0°F 92% 29.76 in 10.0 miles NNW 5.8 mph - N/A   Clear
2:52 AM 32.0°F 30.0°F 92% 29.75 in 10.0 miles North 3.5 mph - N/A   Clear
3:52 AM 32.0°F 28.4°F 87% 29.71 in 10.0 miles North 5.8 mph - N/A   Partly Cloudy
4:52 AM 32.0°F 30.0°F 92% 29.71 in 10.0 miles NNE 5.8 mph - N/A   Partly Cloudy
5:52 AM 33.1°F 30.9°F 92% 29.69 in 10.0 miles NE 4.6 mph - N/A   Overcast
6:52 AM 34.0°F 30.9°F 89% 29.67 in 10.0 miles NNE 5.8 mph - 0.00 in   Overcast
7:52 AM 34.0°F 30.9°F 89% 29.63 in 10.0 miles NNE 3.5 mph - 0.00 in   Overcast
8:52 AM 34.0°F 32.0°F 92% 29.62 in 10.0 miles NW 4.6 mph - N/A   Overcast
9:52 AM 36.0°F 33.1°F 89% 29.63 in 10.0 miles WSW 3.5 mph - 0.00 in   Overcast
10:52 AM 37.0°F 35.1°F 93% 29.61 in 8.0 miles Calm Calm - 0.01 in Rain Light Rain
11:52 AM 37.9°F 35.1°F 89% 29.61 in 10.0 miles Calm Calm - 0.00 in   Overcast
12:48 PM 37.4°F 33.8°F 87% 29.57 in 8.0 miles South 5.8 mph - N/A Rain Light Rain
12:52 PM 37.0°F 34.0°F 89% 29.60 in 10.0 miles SSE 5.8 mph - 0.01 in Rain Light Rain
1:00 PM 37.4°F 33.8°F 87% 29.58 in 10.0 miles SSE 5.8 mph - N/A   Overcast
1:52 PM 37.9°F 34.0°F 86% 29.60 in 10.0 miles SE 5.8 mph - 0.00 in   Overcast
2:52 PM 37.9°F 35.1°F 89% 29.62 in 10.0 miles South 11.5 mph - N/A   Clear
3:52 PM 37.9°F 35.1°F 89% 29.65 in 10.0 miles South 12.7 mph - N/A   Clear
4:52 PM 37.9°F 34.0°F 86% 29.67 in 10.0 miles South 9.2 mph - N/A   Clear
5:52 PM 37.0°F 34.0°F 89% 29.70 in 10.0 miles Calm Calm - N/A   Clear
6:52 PM 33.1°F 30.9°F 92% 29.72 in 9.0 miles SE 4.6 mph - N/A   Clear
7:52 PM 33.1°F 30.9°F 92% 29.74 in 10.0 miles South 3.5 mph - N/A   Clear
8:52 PM 33.1°F 28.9°F 85% 29.76 in 10.0 miles SW 3.5 mph - N/A   Clear
9:52 PM 30.9°F 28.9°F 92% 29.79 in 10.0 miles North 3.5 mph - N/A   Clear
10:52 PM 30.9°F 28.0°F 89% 29.81 in 10.0 miles ESE 3.5 mph - N/A   Clear
11:52 PM 30.9°F 28.9°F 92% 29.81 in 10.0 miles SE 5.8 mph - N/A   Clear
Moon Phase
Dec. 22 Dec. 28 Jan. 04 Jan. 11 Jan. 18
Sunrise:07:41 AM (PST) Moon Rise:12:41 PM (PST)12/22
Sunset:04:10 PM (PST) Moon Set:02:19 AM (PST)12/22

Copyright © 2014 The Weather Underground, Inc.